JBU1778 MDPC-KMCO

Flight info

Callsign JBU1778
Flight time N/A
Altitude 34000
Route MALVN2W MALVN DCT RUMFO/N0458F360 Y443 SUMAC Y280 OCTAL RIDES2
Aircraft A320/M-SDE3FGHIRWY/LB1

Departure

Time 2026-04-30 21:25
Airport Punta Cana International Airport (MDPC)

Arrival

Time N/A
Airport Orlando International Airport (KMCO)
Time Latitude Longitude Altitude Speed Heading
2026-04-30 20:38 18.56374 -68.36335 50 ft 0 kts 176°
2026-04-30 21:10 18.56384 -68.36336 48 ft 4 kts 176°
2026-04-30 21:10 18.56411 -68.36337 49 ft 4 kts 176°
2026-04-30 21:10 18.56434 -68.36339 47 ft 3 kts 176°
2026-04-30 21:11 18.56458 -68.36336 46 ft 4 kts 218°
2026-04-30 21:11 18.56469 -68.36315 46 ft 4 kts 264°
2026-04-30 21:11 18.56471 -68.36288 46 ft 4 kts 265°
2026-04-30 21:11 18.56474 -68.36259 45 ft 4 kts 265°
2026-04-30 21:12 18.56474 -68.36250 45 ft 0 kts 265°
2026-04-30 21:16 18.56474 -68.36251 45 ft 1 kts 265°
2026-04-30 21:16 18.56473 -68.36273 45 ft 4 kts 265°
2026-04-30 21:16 18.56470 -68.36316 46 ft 7 kts 265°
2026-04-30 21:17 18.56465 -68.36382 50 ft 11 kts 266°
2026-04-30 21:17 18.56458 -68.36471 50 ft 13 kts 264°
2026-04-30 21:17 18.56459 -68.36570 50 ft 15 kts 285°
2026-04-30 21:17 18.56500 -68.36643 50 ft 12 kts 307°
2026-04-30 21:18 18.56526 -68.36733 50 ft 11 kts 268°
2026-04-30 21:18 18.56517 -68.36826 50 ft 14 kts 265°
2026-04-30 21:18 18.56508 -68.36937 50 ft 13 kts 265°
2026-04-30 21:18 18.56500 -68.37034 50 ft 14 kts 265°
2026-04-30 21:19 18.56492 -68.37130 50 ft 12 kts 264°
2026-04-30 21:19 18.56484 -68.37212 50 ft 11 kts 264°
2026-04-30 21:19 18.56477 -68.37299 50 ft 11 kts 265°
2026-04-30 21:19 18.56469 -68.37388 50 ft 14 kts 265°
2026-04-30 21:20 18.56461 -68.37487 50 ft 14 kts 265°
2026-04-30 21:20 18.56451 -68.37602 50 ft 14 kts 265°
2026-04-30 21:20 18.56442 -68.37709 50 ft 14 kts 267°
2026-04-30 21:20 18.56474 -68.37780 50 ft 10 kts 342°
2026-04-30 21:21 18.56551 -68.37788 47 ft 13 kts 356°
2026-04-30 21:21 18.56649 -68.37798 51 ft 14 kts 347°
2026-04-30 21:21 18.56766 -68.38002 50 ft 20 kts 294°
2026-04-30 21:22 18.56810 -68.38106 50 ft 16 kts 294°
2026-04-30 21:22 18.56935 -68.38263 51 ft 0 kts 342°
2026-04-30 21:23 18.56991 -68.38281 52 ft 8 kts 344°
2026-04-30 21:24 18.57040 -68.38249 52 ft 8 kts 70°
2026-04-30 21:24 18.57047 -68.38224 52 ft 0 kts 73°
2026-04-30 21:24 18.57052 -68.38205 50 ft 16 kts 73°
2026-04-30 21:24 18.57150 -68.37852 49 ft 83 kts 74°
2026-04-30 21:25 18.57662 -68.35999 149 ft 164 kts 74°
2026-04-30 21:25 18.57981 -68.34842 707 ft 165 kts 73°
2026-04-30 21:25 18.58304 -68.33679 1226 ft 168 kts 71°
2026-04-30 21:26 18.58785 -68.30980 1611 ft 213 kts 101°
2026-04-30 21:26 18.58099 -68.29536 1839 ft 234 kts 134°
2026-04-30 21:27 18.55454 -68.27380 3088 ft 249 kts 141°
2026-04-30 21:27 18.53959 -68.26358 3579 ft 263 kts 159°
2026-04-30 21:27 18.52127 -68.26200 4264 ft 272 kts 193°
2026-04-30 21:28 18.48981 -68.28487 4976 ft 280 kts 223°
2026-04-30 21:28 18.47827 -68.30132 5003 ft 281 kts 244°
2026-04-30 21:28 18.47214 -68.34197 6099 ft 284 kts 269°
2026-04-30 21:29 18.47154 -68.36288 6882 ft 285 kts 268°
2026-04-30 21:29 18.46887 -68.42559 9136 ft 287 kts 268°
2026-04-30 21:30 18.46724 -68.46792 10484 ft 291 kts 268°
2026-04-30 21:31 18.46599 -68.53480 11022 ft 335 kts 276°
2026-04-30 21:31 18.48108 -68.58240 11643 ft 350 kts 296°
2026-04-30 21:32 18.50266 -68.62861 12804 ft 354 kts 295°
2026-04-30 21:32 18.51346 -68.65201 13360 ft 356 kts 295°
2026-04-30 21:32 18.52428 -68.67549 13920 ft 359 kts 295°
2026-04-30 21:32 18.53528 -68.69933 14425 ft 361 kts 294°
2026-04-30 21:33 18.54629 -68.72312 14933 ft 362 kts 294°
2026-04-30 21:33 18.56860 -68.77104 16037 ft 366 kts 294°
2026-04-30 21:33 18.57983 -68.79516 16559 ft 368 kts 294°
2026-04-30 21:34 18.59101 -68.81916 17072 ft 370 kts 294°
2026-04-30 21:34 18.61381 -68.86822 18123 ft 375 kts 294°
2026-04-30 21:34 18.62527 -68.89288 18599 ft 377 kts 294°
2026-04-30 21:35 18.63687 -68.91784 19078 ft 380 kts 293°
2026-04-30 21:35 18.64855 -68.94299 19563 ft 382 kts 293°
2026-04-30 21:35 18.66023 -68.96817 20054 ft 384 kts 293°
2026-04-30 21:35 18.67200 -68.99361 20556 ft 387 kts 292°
2026-04-30 21:36 18.68383 -69.01923 21023 ft 389 kts 292°
2026-04-30 21:36 18.69574 -69.04498 21477 ft 392 kts 292°
2026-04-30 21:37 18.73189 -69.12307 22718 ft 398 kts 291°
2026-04-30 21:37 18.74402 -69.14936 23122 ft 400 kts 291°
2026-04-30 21:37 18.75224 -69.16722 23391 ft 402 kts 291°
2026-04-30 21:37 18.76450 -69.19382 23741 ft 404 kts 291°
2026-04-30 21:38 18.77665 -69.22016 24056 ft 405 kts 291°
2026-04-30 21:38 18.78901 -69.24693 24391 ft 406 kts 291°
2026-04-30 21:38 18.80136 -69.27372 24722 ft 407 kts 291°
2026-04-30 21:38 18.81376 -69.30067 25050 ft 408 kts 291°
2026-04-30 21:39 18.82620 -69.32770 25398 ft 409 kts 291°
2026-04-30 21:39 18.83868 -69.35480 25739 ft 410 kts 291°
2026-04-30 21:39 18.85110 -69.38180 26065 ft 411 kts 291°
2026-04-30 21:39 18.86360 -69.40900 26362 ft 412 kts 291°
2026-04-30 21:40 18.87610 -69.43619 26667 ft 412 kts 291°
2026-04-30 21:40 18.88867 -69.46350 26970 ft 413 kts 291°
2026-04-30 21:40 18.90125 -69.49081 27271 ft 414 kts 291°
2026-04-30 21:40 18.91385 -69.51821 27562 ft 415 kts 291°
2026-04-30 21:41 18.92650 -69.54572 27873 ft 416 kts 291°
2026-04-30 21:41 18.93909 -69.57318 28278 ft 414 kts 291°
2026-04-30 21:41 18.95160 -69.60050 28718 ft 412 kts 291°
2026-04-30 21:41 18.96404 -69.62768 29173 ft 410 kts 291°
2026-04-30 21:42 18.97641 -69.65470 29655 ft 408 kts 291°
2026-04-30 21:42 18.98873 -69.68162 30029 ft 408 kts 291°
2026-04-30 21:42 19.00108 -69.70860 30377 ft 407 kts 291°
2026-04-30 21:42 19.01341 -69.73550 30719 ft 406 kts 291°
2026-04-30 21:43 19.02567 -69.76231 31064 ft 405 kts 291°
2026-04-30 21:43 19.03789 -69.78905 31411 ft 404 kts 291°
2026-04-30 21:43 19.05011 -69.81581 31764 ft 403 kts 291°
2026-04-30 21:43 19.06230 -69.84254 32127 ft 402 kts 291°
2026-04-30 21:44 19.07439 -69.86904 32483 ft 402 kts 291°
2026-04-30 21:44 19.08658 -69.89579 32797 ft 403 kts 291°
2026-04-30 21:44 19.09855 -69.92209 33127 ft 402 kts 291°
2026-04-30 21:44 19.11063 -69.94869 33487 ft 401 kts 291°
2026-04-30 21:45 19.12277 -69.97537 33808 ft 401 kts 291°
2026-04-30 21:45 19.13489 -70.00199 33917 ft 402 kts 291°
2026-04-30 21:45 19.15913 -70.05522 33953 ft 401 kts 291°
2026-04-30 21:46 19.18334 -70.10845 33933 ft 401 kts 291°
2026-04-30 21:46 19.20752 -70.16169 33945 ft 404 kts 291°
2026-04-30 21:47 19.23223 -70.21631 33936 ft 419 kts 291°
2026-04-30 21:47 19.25766 -70.27258 33937 ft 426 kts 291°
2026-04-30 21:48 19.28339 -70.32920 33953 ft 428 kts 291°
2026-04-30 21:48 19.30898 -70.38571 33963 ft 428 kts 291°
2026-04-30 21:49 19.33464 -70.44254 33969 ft 428 kts 291°
2026-04-30 21:49 19.36030 -70.49940 33985 ft 428 kts 291°
2026-04-30 21:50 19.38590 -70.55626 33992 ft 428 kts 291°
2026-04-30 21:50 19.41858 -70.60932 33985 ft 439 kts 309°
2026-04-30 21:51 19.46709 -70.65016 33972 ft 447 kts 318°
2026-04-30 21:51 19.51740 -70.68905 33962 ft 448 kts 318°
2026-04-30 21:52 19.56772 -70.72815 33961 ft 448 kts 318°
2026-04-30 21:52 19.61775 -70.76711 33951 ft 449 kts 318°
2026-04-30 21:53 19.66803 -70.80630 33946 ft 449 kts 318°
2026-04-30 21:53 19.71840 -70.84549 33935 ft 449 kts 318°
2026-04-30 21:54 19.76873 -70.88469 33966 ft 449 kts 319°
2026-04-30 21:54 19.81910 -70.92405 33979 ft 449 kts 319°
2026-04-30 21:55 19.86941 -70.96339 33981 ft 448 kts 319°
2026-04-30 21:55 19.91967 -71.00273 33980 ft 448 kts 319°
2026-04-30 21:56 19.96964 -71.04175 33986 ft 448 kts 319°
2026-04-30 21:56 20.01987 -71.08103 33985 ft 449 kts 319°
2026-04-30 21:57 20.07018 -71.12034 33984 ft 448 kts 319°
2026-04-30 21:57 20.12036 -71.15967 33991 ft 448 kts 319°
2026-04-30 21:58 20.17043 -71.19906 33984 ft 448 kts 319°
2026-04-30 21:58 20.22063 -71.23852 33981 ft 448 kts 319°
2026-04-30 21:59 20.27078 -71.27790 33979 ft 448 kts 319°
2026-04-30 22:00 20.34606 -71.33711 33976 ft 448 kts 319°
2026-04-30 22:00 20.41970 -71.39819 33979 ft 443 kts 309°
2026-04-30 22:01 20.45820 -71.44840 33980 ft 439 kts 304°
2026-04-30 22:01 20.49626 -71.49949 33978 ft 440 kts 305°
2026-04-30 22:02 20.53433 -71.55055 33980 ft 440 kts 305°
2026-04-30 22:02 20.57247 -71.60163 33980 ft 440 kts 305°
2026-04-30 22:03 20.61054 -71.65283 33982 ft 440 kts 305°
2026-04-30 22:03 20.64855 -71.70408 33982 ft 440 kts 305°
2026-04-30 22:04 20.68652 -71.75528 33981 ft 440 kts 305°
2026-04-30 22:05 20.74355 -71.83222 33981 ft 440 kts 305°
2026-04-30 22:05 20.78156 -71.88350 33982 ft 440 kts 305°
2026-04-30 22:06 20.81930 -71.93451 33999 ft 440 kts 305°
2026-04-30 22:06 20.87613 -72.01161 33993 ft 440 kts 305°
2026-04-30 22:07 20.91401 -72.06291 33990 ft 440 kts 305°
2026-04-30 22:07 20.95198 -72.11427 33988 ft 440 kts 305°
2026-04-30 22:08 20.98994 -72.16577 33982 ft 440 kts 305°
2026-04-30 22:08 21.02745 -72.21684 33987 ft 440 kts 305°
2026-04-30 22:09 21.06527 -72.26834 33990 ft 440 kts 306°
2026-04-30 22:09 21.10308 -72.31981 33994 ft 440 kts 306°
2026-04-30 22:10 21.14095 -72.37137 33990 ft 440 kts 306°
2026-04-30 22:10 21.17878 -72.42293 33987 ft 440 kts 306°
2026-04-30 22:11 21.23565 -72.50039 33988 ft 442 kts 306°
2026-04-30 22:12 21.27354 -72.55232 33970 ft 442 kts 306°
2026-04-30 22:12 21.31147 -72.60430 33976 ft 443 kts 306°
2026-04-30 22:13 21.34953 -72.65635 33978 ft 444 kts 306°
2026-04-30 22:13 21.38764 -72.70854 33982 ft 444 kts 306°
2026-04-30 22:14 21.42551 -72.76048 33979 ft 444 kts 306°
2026-04-30 22:14 21.46362 -72.81278 33987 ft 444 kts 306°
2026-04-30 22:15 21.50164 -72.86496 33987 ft 445 kts 306°
2026-04-30 22:15 21.53979 -72.91740 33987 ft 445 kts 306°
2026-04-30 22:16 21.57783 -72.96989 33980 ft 445 kts 307°
2026-04-30 22:17 21.65412 -73.07526 33967 ft 447 kts 307°
2026-04-30 22:17 21.71131 -73.15409 33973 ft 448 kts 307°
2026-04-30 22:18 21.76889 -73.23368 33982 ft 448 kts 307°
2026-04-30 22:19 21.82627 -73.31322 33989 ft 448 kts 308°
2026-04-30 22:20 21.88365 -73.39280 33999 ft 448 kts 308°
2026-04-30 22:20 21.94058 -73.47196 33990 ft 447 kts 309°
2026-04-30 22:21 21.97859 -73.52493 33995 ft 447 kts 309°
2026-04-30 22:21 22.01664 -73.57803 33998 ft 446 kts 309°
2026-04-30 22:22 22.05452 -73.63080 34001 ft 446 kts 310°
2026-04-30 22:22 22.09231 -73.68343 33987 ft 446 kts 309°
2026-04-30 22:23 22.13053 -73.73671 33985 ft 446 kts 310°
2026-04-30 22:23 22.16845 -73.78965 33983 ft 446 kts 309°
2026-04-30 22:24 22.19990 -73.83383 33997 ft 446 kts 309°
2026-04-30 22:24 22.24394 -73.89560 33990 ft 446 kts 309°
2026-04-30 22:25 22.27574 -73.94016 33993 ft 447 kts 309°
2026-04-30 22:25 22.31370 -73.99334 34001 ft 446 kts 309°
2026-04-30 22:26 22.37008 -74.07267 34003 ft 445 kts 309°
2026-04-30 22:27 22.40776 -74.12568 34006 ft 444 kts 309°
2026-04-30 22:27 22.46406 -74.20502 34006 ft 443 kts 308°
2026-04-30 22:28 22.52034 -74.28440 33999 ft 443 kts 308°
2026-04-30 22:29 22.59530 -74.39023 33991 ft 442 kts 308°
2026-04-30 22:30 22.66971 -74.49591 34688 ft 438 kts 308°
2026-04-30 22:31 22.72461 -74.57359 35564 ft 434 kts 308°
2026-04-30 22:32 22.77954 -74.65151 35984 ft 433 kts 308°
2026-04-30 22:32 22.81602 -74.70345 35974 ft 433 kts 308°
2026-04-30 22:33 22.90723 -74.83346 35978 ft 433 kts 308°
2026-04-30 22:35 22.99844 -74.96368 35987 ft 434 kts 308°
2026-04-30 22:36 23.08992 -75.09360 35998 ft 433 kts 314°
2026-04-30 22:37 23.17821 -75.18268 35999 ft 433 kts 318°
2026-04-30 22:38 23.26671 -75.27157 35999 ft 433 kts 318°
2026-04-30 22:39 23.33314 -75.33814 35998 ft 433 kts 318°
2026-04-30 22:40 23.46571 -75.47143 36006 ft 433 kts 318°
2026-04-30 22:41 23.57597 -75.58272 35997 ft 433 kts 318°
2026-04-30 22:43 23.70862 -75.71710 35999 ft 433 kts 319°
2026-04-30 22:44 23.79717 -75.80674 36002 ft 434 kts 319°
2026-04-30 22:45 23.92980 -75.94155 36004 ft 436 kts 319°
2026-04-30 22:47 24.06291 -76.07732 36005 ft 436 kts 319°
2026-04-30 22:48 24.15138 -76.16776 36003 ft 436 kts 319°
2026-04-30 22:49 24.28459 -76.30416 36003 ft 437 kts 319°
2026-04-30 22:51 24.41742 -76.44062 35999 ft 437 kts 318°
2026-04-30 22:52 24.48385 -76.50899 35997 ft 436 kts 318°
2026-04-30 22:53 24.57210 -76.60009 36011 ft 435 kts 318°
2026-04-30 22:53 24.63824 -76.66843 36007 ft 435 kts 318°
2026-04-30 22:55 24.74818 -76.78236 36020 ft 434 kts 318°
2026-04-30 22:56 24.83583 -76.87330 36009 ft 432 kts 317°
2026-04-30 22:57 24.94459 -76.98651 36005 ft 431 kts 317°
2026-04-30 22:58 25.03156 -77.07732 36003 ft 430 kts 317°
2026-04-30 22:59 25.16201 -77.21357 36000 ft 430 kts 317°